Location: Newark
(12.4436°N, 0.6167°W)
Time: 08:33:47
(UTC+00:00)

deb Explorer IX - Pass Details

Date: 17 December 2019
Orbit: 548 x 1101 km, 38.8° (Epoch: 19 January)

Event Time Altitude Azimuth Distance (km) Brightness Sun altitude
Rises 19:06:21 0° 324° (NW) 3,535 ? -20.3°
Reaches altitude 10° 19:09:12 10° 336° (NNW) 2,679 ? -20.9°
Enters shadow 19:14:10 29° 25° (NNE) 1,790 ? -22.1°
Maximum altitude 19:14:48 29° 34° (NE) 1,785 - -22.2°
Drops below altitude 10° 19:20:51 10° 92° (E) 2,915 - -23.6°
Sets 19:24:04 0° 103° (ESE) 3,899 - -24.3°
